GFSGBSN_925_temp_273.txt.gz
Temp
13 13 13 14 15 13 15 15 16 16 17 17 18 18 19 19 20 21 21 21 22 23 24 24 25 25 25 25 30 36 36 36 36 35 34 34 35 37 33 32 33 33 33 34 34 32 37
13 13 13 13 14 13 14 15 15 16 17 17 18 18 19 19 20 21 21 22 23 24 23 25 25 25 22 28 36 37 37 35 35 34 35 36 36 36 33 32 30 31 33 32 29 34 34
13 13 13 13 14 14 13 15 15 16 17 17 18 19 19 20 20 20 22 22 24 24 24 25 25 23 25 28 37 37 36 36 36 36 35 38 39 35 34 28 33 31 31 31 32 33 34
13 13 13 13 13 14 14 14 15 15 16 17 18 19 19 20 20 21 22 24 25 25 25 25 25 21 25 36 37 36 37 37 37 37 37 39 40 31 32 31 31 30 28 26 31 31 33
13 13 13 13 13 14 14 14 15 15 16 17 18 19 19 20 21 21 23 25 26 26 25 25 23 22 29 37 36 38 38 38 38 38 39 40 40 34 34 33 30 29 27 28 29 30 30
13 13 13 12 13 13 14 14 15 15 16 16 18 18 19 20 21 21 24 26 26 26 25 22 24 27 30 35 38 38 38 39 37 37 37 37 32 31 30 28 28 27 26 27 27 31 26
13 13 13 12 13 13 14 14 15 15 16 16 17 18 19 21 22 21 24 25 25 25 27 28 31 32 37 36 39 38 39 39 37 37 34 35 32 31 31 30 30 30 28 28 29 31 29
12 13 13 12 12 13 13 13 14 15 16 16 17 18 19 21 23 24 23 23 31 32 29 31 32 34 36 39 38 38 39 35 35 34 35 34 33 35 35 36 31 33 30 30 33 32 34
12 12 13 13 13 13 14 14 14 15 15 16 17 18 19 21 25 26 25 28 32 32 29 33 34 34 36 38 36 35 37 36 35 34 35 34 34 35 37 34 33 33 31 33 34 36 33
12 12 12 12 12 13 14 14 14 15 15 16 17 18 19 20 26 23 25 31 32 32 27 33 34 35 37 37 35 38 38 36 36 34 35 35 36 36 37 37 34 28 34 35 35 33 30
11 11 12 12 12 12 13 13 14 14 15 16 17 18 18 18 18 20 28 29 31 31 27 36 35 39 36 35 37 37 39 37 35 35 36 35 36 36 36 37 35 33 31 33 33 31 31
11 11 11 11 11 11 12 13 14 14 15 16 17 18 17 18 18 24 26 28 29 27 29 36 36 36 35 35 36 38 37 37 37 36 36 36 40 38 37 41 40 39 38 31 29 29 28
10 10 10 11 11 11 11 12 13 13 14 16 17 19 17 15 21 26 27 27 26 27 37 35 34 35 34 34 36 36 36 34 33 34 33 35 37 39 40 38 39 38 35 29 27 25 27
9 10 10 10 10 11 11 11 12 13 13 15 18 20 23 23 24 24 25 25 27 33 34 37 35 35 34 35 35 36 35 33 34 34 33 33 34 37 39 38 36 37 35 29 28 28 29
9 9 10 10 10 10 11 11 12 12 13 14 17 19 21 24 25 24 24 24 28 33 37 38 36 34 34 36 36 35 35 34 35 35 33 34 35 40 39 39 37 37 34 35 31 29 27
9 9 10 10 10 11 11 11 12 12 13 14 14 16 21 27 26 25 24 24 30 34 36 36 35 35 33 35 35 34 34 36 36 36 35 35 33 37 39 39 39 39 37 32 29 28 28
9 9 9 9 10 11 11 11 12 12 14 17 15 21 29 28 27 25 24 27 31 34 35 35 35 35 36 35 35 35 35 37 37 38 36 36 35 34 38 38 37 35 34 35 29 26 25
8 8 9 9 11 12 12 12 12 12 14 17 20 22 30 29 25 25 26 28 29 33 34 35 36 35 35 36 36 35 36 37 39 38 37 36 35 32 35 39 39 39 36 34 29 32 29
7 8 9 10 11 12 12 12 11 12 12 12 18 23 28 30 25 26 28 30 31 32 33 36 35 35 35 35 35 36 37 39 39 37 34 37 33 31 32 34 38 37 38 38 33 31 32
7 7 8 10 10 11 11 12 11 11 12 13 18 23 27 28 28 28 28 30 30 33 34 35 35 35 34 34 35 36 38 38 37 34 32 35 34 32 30 33 36 36 37 36 35 31 31
7 7 8 9 10 10 10 11 11 11 12 13 19 23 25 24 27 28 29 29 31 32 35 34 32 34 34 33 33 37 37 36 37 33 37 34 33 33 33 36 37 38 38 37 35 35 34
7 7 8 8 9 10 10 10 10 11 13 12 18 21 23 23 25 26 27 28 30 32 34 33 32 34 34 33 34 35 36 34 34 35 36 35 31 34 33 36 36 36 37 37 38 37 36
7 7 8 8 9 9 10 10 10 10 13 16 18 20 21 22 25 27 29 30 32 33 34 35 34 34 34 35 36 36 36 34 34 32 32 33 31 31 32 34 36 34 36 36 38 38 36
7 7 7 7 8 9 9 9 10 9 9 10 14 16 19 21 23 25 25 30 32 33 33 35 35 33 34 35 37 36 36 38 36 34 33 32 31 30 30 33 32 34 35 36 33 33 33
7 7 7 7 8 8 8 9 9 8 8 8 12 15 19 19 22 23 25 26 27 29 32 34 35 35 35 36 33 33 33 35 36 36 35 34 31 31 30 30 34 34 35 34 33 30 32
7 7 7 7 7 8 8 8 8 8 9 10 12 15 16 19 21 22 22 25 25 29 32 33 35 35 36 32 31 32 31 35 34 35 35 33 32 29 31 32 31 33 34 35 35 28 32
7 7 7 7 7 7 7 7 8 8 8 9 13 16 16 18 20 21 21 22 25 26 28 32 33 33 34 30 30 31 31 35 32 32 33 30 29 30 29 31 33 31 32 33 32 29 31
7 7 7 7 7 7 7 7 7 8 8 9 13 16 16 18 20 21 21 21 24 25 25 26 29 31 30 30 30 30 31 31 33 31 30 29 29 29 30 31 30 32 32 29 29 31 30
7 7 7 7 7 7 7 7 7 8 8 9 11 15 15 17 19 20 20 21 22 25 24 26 26 28 29 29 30 30 31 30 30 30 31 30 30 29 29 26 29 31 29 29 29 29 30

GFSGBSN_925_temp_276.txt.gz
Temp
13 13 13 13 13 13 14 15 15 16 17 17 18 18 19 19 20 20 20 21 21 22 23 24 25 25 24 25 27 35 36 36 35 35 34 33 34 32 31 32 32 30 32 33 33 30 31
13 13 13 13 13 13 13 14 15 16 16 17 18 18 19 19 20 20 20 21 22 23 23 24 25 24 22 28 35 35 37 35 35 34 34 33 34 34 32 32 31 31 31 31 32 30 30
13 13 13 13 13 14 13 14 15 15 16 17 18 18 19 19 20 20 21 22 23 24 24 24 24 22 22 27 34 35 35 36 35 35 34 35 36 34 32 31 32 31 30 29 29 31 28
13 13 13 13 13 13 13 14 15 15 16 17 17 18 18 19 20 21 21 23 24 24 25 25 24 21 23 35 35 35 35 35 36 36 36 36 36 30 31 30 31 30 27 26 28 30 29
13 13 13 13 13 13 13 13 15 15 16 16 17 18 18 19 20 21 22 25 25 25 24 24 22 22 26 33 35 37 36 36 36 37 37 37 35 30 32 29 28 27 28 26 28 29 30
13 13 13 13 13 14 13 13 15 15 15 16 17 18 18 19 21 21 24 26 25 25 23 21 22 24 27 33 36 37 37 37 35 35 35 35 29 29 28 26 27 28 28 29 27 28 29
13 12 12 12 12 13 14 14 14 15 15 16 17 18 19 20 22 22 25 25 23 24 24 25 27 27 32 34 36 36 37 36 36 35 33 33 31 30 30 29 29 29 28 29 30 30 29
12 12 12 12 12 13 14 14 14 15 15 16 17 18 19 20 22 24 23 21 25 29 26 26 27 28 31 32 33 34 36 34 34 32 33 31 30 31 33 30 30 29 28 28 31 31 30
12 12 12 12 12 12 13 13 14 15 15 16 17 18 18 21 24 23 21 25 26 28 25 28 29 29 31 32 32 33 34 33 33 32 32 30 32 33 34 33 32 31 28 29 30 30 30
11 12 12 12 12 12 13 13 13 14 15 16 17 17 18 20 23 21 22 26 27 28 23 27 31 32 33 35 35 35 35 34 33 32 32 31 33 34 33 32 32 31 32 32 33 30 28
10 10 11 11 12 11 12 12 12 13 15 16 17 17 18 17 17 17 26 26 28 27 26 32 31 36 32 33 34 35 36 34 33 33 32 32 34 33 33 33 33 31 33 33 33 29 28
10 10 10 10 11 11 11 11 12 12 14 16 17 17 17 17 16 24 24 25 27 24 27 33 33 33 32 32 34 35 34 35 34 34 33 32 35 35 33 35 36 33 31 29 26 27 27
9 9 10 10 10 10 10 11 11 12 13 14 17 18 17 16 19 25 24 22 23 23 30 33 32 31 31 31 33 34 33 33 31 32 31 33 35 37 35 33 34 32 28 27 27 24 27
8 9 9 10 9 10 10 11 11 12 13 14 17 19 21 22 24 23 22 22 25 28 30 32 32 30 30 31 33 32 31 31 31 30 28 31 31 33 34 33 33 33 29 26 28 26 27
9 8 9 9 10 10 11 11 11 12 13 14 16 19 17 25 24 21 19 21 23 26 33 32 32 30 31 33 33 33 30 29 31 29 30 31 32 36 36 36 35 35 33 29 26 25 26
8 8 9 9 10 11 12 11 11 12 13 14 15 14 16 23 24 22 19 19 23 29 30 30 31 30 29 30 32 31 30 31 33 32 30 32 31 34 36 36 36 34 33 32 25 28 28
8 8 8 10 11 12 11 11 11 12 14 16 16 15 24 24 24 18 18 19 25 28 30 29 29 32 31 31 30 30 31 34 33 34 30 30 30 32 34 34 33 34 32 27 25 24 24
7 7 8 9 11 11 12 12 12 12 13 16 13 17 25 24 20 17 19 23 24 26 28 28 29 33 33 34 33 30 32 33 34 34 33 30 28 30 35 34 34 32 32 28 27 30 24
7 7 8 9 10 10 11 12 11 11 11 10 11 14 25 25 20 19 21 24 26 27 28 29 29 31 33 33 33 31 32 35 34 32 33 32 28 28 31 30 33 35 35 31 26 24 27
7 7 7 8 9 10 10 10 11 11 11 11 11 15 18 19 20 22 23 23 25 28 28 29 30 31 30 31 31 32 34 35 34 33 29 29 27 28 28 31 32 32 34 34 28 27 28
7 7 7 8 9 9 10 10 10 11 12 12 11 15 19 18 19 19 21 23 25 25 28 29 30 32 31 31 30 32 33 33 33 33 34 30 31 32 29 31 34 35 36 35 33 31 32
7 7 7 7 8 9 10 10 10 10 13 12 12 14 15 16 18 21 21 22 25 26 27 27 30 31 31 30 31 32 34 31 33 34 34 28 31 32 33 32 32 35 34 34 34 35 34
7 7 7 7 8 8 9 9 10 10 12 11 14 15 13 16 18 20 21 22 24 26 28 29 30 31 31 31 32 31 32 31 30 31 29 29 27 26 31 31 32 31 33 30 30 29 30
7 7 7 7 7 7 8 8 9 8 9 9 11 12 12 16 18 20 21 22 23 22 24 29 30 29 30 32 32 31 31 30 29 30 28 26 25 25 27 29 31 31 31 31 30 30 29
7 7 7 7 7 7 8 8 8 8 8 8 10 11 11 13 17 20 20 21 21 22 25 29 32 30 30 33 29 28 28 32 33 30 30 27 24 26 27 26 30 31 31 33 28 28 30
7 7 7 7 7 7 7 7 8 8 8 9 10 11 11 15 16 18 19 20 18 20 21 30 32 30 29 26 27 29 29 29 31 33 27 25 25 27 25 30 29 29 30 31 28 27 30
7 7 7 8 7 7 7 7 7 7 8 8 11 12 12 14 15 17 17 18 19 19 19 21 23 28 27 24 26 26 28 30 30 29 31 26 25 27 25 28 28 30 30 30 31 27 29
7 7 7 7 7 7 7 7 7 7 8 8 11 13 13 12 13 17 18 18 18 18 18 20 23 25 24 26 26 25 26 28 29 29 29 28 26 26 24 25 28 30 30 28 26 27 29
7 7 7 7 7 7 7 7 7 7 8 7 8 12 12 11 13 18 18 19 19 18 17 18 21 22 22 24 24 23 27 24 24 27 28 28 26 26 26 25 25 27 27 27 26 28 30

GFSGBSN_925_temp_279.txt.gz
Temp
13 13 13 13 13 14 14 15 15 15 16 17 17 17 18 18 19 19 20 21 21 22 23 24 25 25 23 25 27 34 35 36 34 34 34 34 33 32 31 32 30 29 30 31 32 31 31
13 13 13 13 13 14 14 14 15 15 16 16 17 17 17 18 18 19 21 21 22 23 23 24 24 24 22 28 34 34 34 35 34 34 33 34 34 33 31 31 30 29 30 30 30 30 30
13 13 13 13 13 13 14 15 15 15 16 16 17 17 18 18 19 20 21 22 23 24 24 24 24 21 22 27 33 33 33 34 34 34 32 35 35 33 32 30 30 29 29 29 28 29 30
13 13 13 13 13 13 13 14 15 15 16 16 16 17 18 18 20 21 21 23 24 25 24 24 23 20 23 33 33 34 33 34 34 34 35 36 34 30 31 30 29 29 26 26 29 29 29
13 12 13 13 13 13 13 14 14 15 15 16 16 17 18 18 20 21 23 24 25 24 24 23 21 21 26 33 33 36 35 34 35 35 35 35 32 30 30 28 27 26 26 27 27 29 29
13 12 13 12 13 13 13 14 14 15 15 16 16 17 17 19 20 21 24 24 23 22 21 20 21 23 28 33 34 35 35 35 35 34 33 32 27 27 26 26 28 28 28 28 27 29 29
12 12 12 12 12 13 13 13 14 15 15 16 16 17 18 20 21 23 25 22 21 22 22 26 26 26 28 32 34 35 35 34 34 32 32 31 29 29 29 28 30 28 29 31 30 30 29
12 12 12 12 12 12 12 13 14 14 15 15 16 17 18 20 21 23 23 21 23 24 21 24 25 25 28 31 31 33 35 34 33 32 32 30 30 30 30 30 30 28 28 28 30 31 29
11 12 12 11 12 12 12 12 13 14 15 15 16 16 17 20 21 22 20 24 23 22 23 26 26 27 30 29 30 31 33 32 32 32 32 30 31 31 30 30 30 28 28 28 30 30 28
10 10 11 11 11 11 12 12 12 13 14 15 15 16 16 19 21 19 21 24 25 23 22 28 29 30 31 31 33 33 33 33 32 31 30 31 32 33 31 31 31 30 29 30 30 28 27
9 10 10 10 10 11 11 11 12 12 13 15 15 16 15 16 16 16 24 25 26 25 26 30 30 33 30 32 33 34 34 33 32 32 30 31 34 33 32 31 31 31 31 31 30 28 28
9 9 9 9 10 10 10 11 11 12 12 14 15 16 15 16 15 23 23 25 26 24 26 31 31 31 31 32 33 32 33 33 32 33 32 31 32 33 32 33 33 32 30 26 25 25 26
8 8 9 9 9 10 10 11 11 12 12 13 15 17 16 15 18 23 23 21 22 23 29 32 31 30 30 30 32 33 32 31 30 29 31 30 32 33 33 31 31 30 27 26 28 25 27
8 8 9 9 10 10 11 11 11 12 12 13 15 18 20 20 22 22 22 22 24 27 27 29 30 28 29 29 31 31 29 29 30 29 26 29 31 33 33 32 30 28 27 26 30 27 27
7 8 8 9 10 10 11 11 11 12 12 13 17 18 18 22 23 20 19 20 22 24 28 29 30 30 30 30 31 31 29 29 29 28 30 28 30 33 34 33 33 31 31 28 24 23 25
7 7 8 9 10 10 11 11 11 12 13 15 15 14 16 21 22 21 19 19 22 25 27 27 30 30 28 29 31 29 28 30 31 29 30 31 31 32 34 34 33 33 30 30 24 27 28
7 7 8 9 10 11 11 11 11 11 13 15 15 14 21 21 22 17 18 18 22 25 27 27 28 29 29 30 28 28 29 31 31 30 30 28 30 31 33 33 32 32 30 25 24 23 25
7 7 7 8 9 10 11 11 11 11 13 15 11 17 20 20 18 14 17 19 23 25 26 27 27 26 32 28 29 29 30 31 31 29 30 29 26 29 31 32 31 32 31 26 26 28 22
7 7 7 8 9 9 10 11 10 10 11 11 9 11 21 22 19 18 19 23 25 25 26 28 28 29 30 32 32 30 30 32 31 31 30 29 27 28 30 29 31 35 31 26 23 22 23
7 7 7 8 8 9 10 10 10 10 11 11 10 16 16 16 16 21 21 22 24 25 25 27 27 28 30 30 30 32 31 34 31 31 27 27 24 28 28 30 30 32 32 28 27 25 25
7 7 7 7 8 9 9 9 10 10 12 12 10 14 15 16 18 18 20 22 23 24 25 26 28 28 30 31 30 31 32 33 32 27 29 29 30 30 29 31 31 33 33 32 31 28 31
7 7 7 7 8 9 9 9 9 10 12 12 11 12 12 14 15 19 19 21 22 23 24 25 26 29 29 30 31 31 32 31 32 33 31 26 28 31 31 31 32 33 30 30 30 30 32
7 7 7 7 7 7 8 9 9 10 11 10 11 12 11 14 16 19 19 20 21 22 22 26 27 26 25 27 28 28 29 29 32 31 27 27 25 26 29 30 31 30 30 28 28 27 28
7 7 7 7 7 7 7 8 8 8 8 9 10 10 11 14 16 18 19 21 22 21 20 23 24 25 27 30 31 30 28 27 28 29 25 25 23 23 26 28 30 29 29 29 28 28 27
8 7 7 7 7 7 7 7 8 8 8 8 9 9 10 13 14 17 19 20 19 19 20 22 26 27 26 30 27 27 26 30 31 26 29 24 22 23 26 25 29 30 29 31 29 28 28
7 7 7 7 8 7 7 7 7 7 7 8 9 9 9 12 13 17 17 18 17 17 17 20 22 22 25 23 26 27 28 28 30 30 24 23 22 25 22 28 27 27 30 29 28 26 29
7 7 7 7 7 7 7 7 7 7 7 7 9 10 10 12 12 16 16 16 18 17 16 17 19 20 24 22 24 25 27 27 28 28 28 25 23 25 23 26 26 27 29 28 30 27 28
7 7 7 7 7 7 7 8 7 7 7 7 10 10 10 11 10 15 18 17 16 16 16 17 19 20 21 24 24 23 25 26 27 26 26 27 25 24 22 24 29 28 30 31 25 25 27
7 7 7 7 7 7 7 7 7 7 7 7 8 10 10 8 10 15 16 17 17 18 16 15 18 17 19 20 21 21 25 23 23 27 26 28 25 25 25 24 24 26 28 25 25 25 27

GFSGBSN_925_temp_285.txt.gz
Temp
13 12 13 13 13 13 13 14 14 15 15 15 16 16 17 18 19 19 20 20 22 23 23 23 24 24 24 28 32 33 34 34 33 33 34 35 35 34 34 33 33 32 32 32 32 32 32
12 12 12 13 13 13 13 14 14 14 15 15 16 16 17 18 19 19 20 21 23 23 24 24 24 24 23 30 32 31 33 34 34 33 33 35 35 34 33 32 32 31 32 31 31 31 31
12 12 13 12 12 13 13 13 14 14 15 15 16 16 17 18 19 20 20 22 24 24 24 24 24 22 24 32 30 30 31 32 33 33 35 34 34 36 33 32 31 31 31 31 31 31 30
12 12 12 12 12 12 13 13 13 14 14 15 15 16 18 18 19 20 21 23 24 25 24 24 23 22 28 31 31 31 32 32 33 33 33 32 33 33 33 32 32 31 31 31 31 31 30
12 12 12 12 12 12 12 12 13 14 14 15 15 16 17 18 19 20 21 21 22 23 23 22 21 23 31 30 31 32 33 33 32 32 33 32 33 32 32 33 32 31 32 31 31 31 31
12 12 11 11 11 12 12 12 13 13 14 15 15 16 17 18 19 19 21 20 20 21 20 20 20 25 30 32 31 32 32 32 34 34 34 34 33 34 32 34 33 33 32 31 31 30 31
11 11 11 12 11 11 11 12 13 13 13 14 15 16 17 18 19 20 20 20 23 24 21 28 27 28 29 30 30 32 32 33 34 34 35 32 35 35 34 33 32 32 32 32 32 31 31
9 10 10 10 11 10 10 11 12 13 13 14 15 16 17 18 19 20 19 23 21 20 24 24 24 25 26 28 33 33 32 35 34 35 33 34 35 34 32 32 32 32 32 33 32 31 31
8 9 9 9 9 9 10 10 11 12 13 13 14 15 16 18 19 19 18 21 20 19 24 27 26 28 30 30 33 33 34 33 34 33 34 35 34 32 33 32 33 33 33 32 31 31 30
8 8 8 8 8 9 9 10 11 11 12 12 13 13 14 17 18 17 19 20 20 19 28 30 29 31 30 31 34 32 33 35 33 34 33 35 32 34 34 33 33 34 32 31 32 33 32
7 8 8 8 8 9 9 9 10 11 11 12 12 12 13 14 15 16 21 20 20 20 30 30 30 30 29 34 34 32 32 34 34 33 34 35 33 34 34 35 33 34 32 32 31 32 31
8 8 8 8 9 9 9 10 10 10 11 11 12 13 14 14 12 20 20 20 20 27 29 30 30 31 32 32 33 32 34 33 32 33 33 34 33 35 35 33 33 31 32 31 30 32 33
7 7 7 8 9 9 10 10 10 10 11 12 13 15 15 12 19 20 20 22 27 27 29 30 31 31 33 32 32 34 34 34 34 33 34 34 35 34 34 35 32 33 35 34 34 34 33
8 7 7 8 9 10 10 10 10 10 11 12 15 17 17 18 19 19 20 27 26 27 28 29 29 30 33 32 32 32 33 33 31 34 33 34 34 35 34 35 35 33 35 34 32 33 33
8 8 8 8 9 10 10 10 10 10 11 13 15 16 15 18 18 17 23 26 27 27 27 28 30 31 31 31 33 32 33 34 33 33 34 33 34 34 33 33 35 32 34 33 32 28 32
8 7 7 7 8 9 10 10 10 10 12 12 13 13 16 17 17 18 25 23 25 24 26 27 30 31 31 32 33 32 32 33 33 33 33 33 34 34 33 35 33 35 32 34 33 33 33
8 7 7 7 8 8 9 9 8 9 12 12 12 19 17 17 18 23 25 24 24 25 25 27 28 29 31 31 33 33 32 32 34 33 33 33 34 34 34 35 35 33 33 31 33 32 34
8 7 7 7 7 8 9 8 8 9 11 13 12 21 17 17 22 18 24 22 22 26 27 27 27 28 30 30 31 32 33 33 33 33 33 33 34 34 36 33 32 34 35 36 35 32 29
8 8 7 7 7 8 9 9 8 9 9 9 14 16 18 18 23 22 21 24 24 26 27 27 28 28 29 30 32 31 31 31 31 34 33 33 34 34 35 35 33 35 32 32 33 33 31
7 7 8 7 7 7 8 8 9 10 10 10 14 21 20 19 18 22 23 24 25 25 26 26 27 28 29 30 29 31 32 32 31 34 28 33 33 35 35 36 36 34 33 31 36 35 32
8 7 7 7 7 7 7 8 9 10 11 10 13 16 15 21 20 21 22 23 24 25 25 25 27 28 28 30 31 31 32 32 31 27 31 36 35 32 33 33 34 35 34 31 34 34 36
8 8 7 7 7 7 7 7 8 10 12 12 15 15 15 17 17 20 19 22 23 24 24 26 27 25 26 28 29 30 31 32 33 29 31 31 34 33 34 32 33 34 32 33 32 31 31
8 8 7 7 7 7 7 7 8 9 11 11 10 11 13 15 18 21 20 21 22 22 24 24 24 24 26 27 25 28 29 31 31 32 31 32 32 33 34 32 33 34 33 33 31 31 33
8 8 7 7 7 7 7 7 7 7 8 8 8 9 15 18 18 19 19 20 21 21 22 23 23 23 25 24 28 27 29 30 29 29 30 29 30 31 33 32 32 31 30 31 31 30 31
8 8 7 7 7 7 7 7 7 7 8 8 8 10 13 16 16 18 19 20 21 21 21 21 23 24 23 25 29 31 31 30 29 27 30 30 31 29 32 32 30 30 30 31 33 30 30
8 8 7 7 7 7 7 7 8 7 7 8 8 8 11 14 16 15 17 18 20 20 21 21 22 22 23 26 28 30 31 32 31 30 28 29 30 34 29 31 31 34 32 32 33 31 31
8 8 8 7 7 7 7 7 7 7 7 7 8 8 10 14 15 15 17 18 18 19 20 19 20 22 23 26 29 30 32 29 31 32 31 31 30 32 31 31 31 31 32 31 32 33 31
8 8 8 8 7 7 7 7 7 7 7 7 8 8 9 12 14 14 16 16 17 18 19 19 21 21 23 25 27 29 30 30 30 29 31 32 32 31 29 31 32 31 30 32 32 30 31
8 8 8 8 7 7 7 7 7 7 7 7 7 7 7 10 13 11 13 14 15 17 18 18 19 19 21 22 22 23 27 26 30 32 27 31 32 32 33 34 27 30 32 30 32 30 29

GFSGBSN_925_temp_291.txt.gz
Temp
13 12 12 13 13 13 13 14 14 14 14 15 15 16 16 17 18 19 20 21 22 23 24 25 25 25 25 33 38 34 34 35 33 35 39 41 40 40 39 40 40 39 38 38 38 38 37
12 12 12 12 13 13 12 13 13 14 14 14 15 16 16 17 18 19 20 21 22 24 24 25 25 25 26 35 37 36 36 33 37 38 40 41 41 41 40 39 39 39 38 37 38 37 37
11 12 12 12 12 12 12 13 13 13 14 14 15 15 16 17 18 19 20 21 22 24 25 25 25 23 32 38 36 37 36 37 38 39 41 41 41 41 41 39 39 39 37 37 37 37 36
11 12 12 12 12 12 12 12 13 13 13 14 15 15 16 17 18 20 21 21 22 23 24 25 25 24 35 37 36 36 38 39 39 39 40 40 40 41 41 40 39 39 39 36 37 37 36
10 11 11 11 11 12 12 12 12 13 13 14 15 15 16 17 18 20 21 22 22 23 24 25 24 30 37 34 36 38 38 39 39 40 40 39 41 42 41 26 35 36 37 37 36 37 37
9 9 9 10 10 11 11 11 11 12 13 13 14 14 16 17 19 20 22 22 22 22 23 24 27 32 36 38 39 38 39 40 41 41 40 40 41 41 41 31 36 39 38 38 38 37 37
8 8 8 9 9 10 10 10 11 11 11 13 13 13 15 17 19 20 21 25 28 29 29 36 37 37 39 39 38 39 38 40 41 40 39 41 40 35 40 40 40 40 38 39 38 38 37
9 8 8 8 8 9 9 10 9 9 10 12 12 12 14 17 20 21 20 29 29 28 31 35 36 38 36 38 38 40 39 39 39 39 40 41 39 40 41 40 40 40 39 39 39 38 38
9 9 8 9 8 9 9 10 10 10 10 11 11 12 13 18 20 21 26 27 27 28 31 36 37 37 37 37 39 40 40 40 39 39 40 40 40 41 40 40 40 41 40 39 38 38 39
9 8 8 8 9 9 10 10 10 10 10 11 11 12 13 18 20 25 28 27 27 28 32 36 36 37 38 38 39 41 40 40 40 39 40 40 41 40 40 40 41 36 40 39 39 40 38
9 8 8 8 9 9 10 10 10 11 11 11 11 12 13 14 17 26 28 26 26 29 32 38 37 39 39 38 40 40 40 41 39 40 41 40 40 39 39 40 40 39 41 40 40 40 40
9 9 8 9 9 9 10 10 10 10 10 11 11 12 14 19 17 23 25 26 28 30 33 37 38 37 38 38 40 40 40 41 41 40 41 41 42 41 41 41 40 41 40 41 41 39 39
9 8 8 8 8 9 9 10 10 10 10 11 12 14 12 14 25 25 25 28 29 32 38 37 36 37 38 37 39 39 38 38 38 37 38 39 40 41 41 40 41 41 40 34 34 39 39
8 8 8 8 7 8 9 9 9 9 9 11 14 16 16 17 22 22 25 28 29 34 37 39 38 38 37 38 39 39 38 38 39 40 40 38 38 40 41 40 41 41 40 38 36 37 39
8 8 8 8 8 8 8 9 9 9 10 11 16 20 20 22 20 22 27 28 31 36 39 38 38 37 37 39 39 38 38 39 39 40 39 39 39 42 42 42 41 41 40 43 40 41 40
8 8 8 8 8 8 8 9 9 10 10 11 12 23 25 25 23 24 27 27 35 36 37 37 37 38 37 38 38 38 38 40 40 41 42 42 39 42 42 41 41 40 35 39 35 38 38
8 8 8 8 8 8 8 8 9 9 11 12 15 25 27 24 24 27 28 31 34 35 34 36 37 38 39 39 39 38 39 40 41 40 41 42 42 40 41 40 40 41 40 39 41 42 39
8 8 8 8 8 8 8 8 9 9 11 16 22 26 25 25 26 29 30 32 24 35 34 35 36 39 39 39 38 39 39 40 41 41 39 41 42 39 39 42 42 42 42 42 37 31 40
9 8 8 8 8 8 8 8 8 9 8 10 24 28 25 26 28 30 31 33 33 34 35 35 36 38 40 39 38 39 40 41 41 41 40 41 40 39 40 41 41 40 42 43 42 39 39
9 8 8 8 8 8 8 8 9 9 9 10 23 27 28 28 31 31 32 32 32 34 35 35 36 37 38 38 40 38 39 40 40 40 35 39 41 41 40 40 41 40 41 41 42 41 40
8 8 8 8 8 8 8 8 9 10 11 10 24 28 28 28 29 31 33 32 33 32 33 34 34 36 36 37 38 38 40 39 39 33 39 40 39 41 40 42 42 41 41 41 41 41 41
8 8 8 8 8 8 8 8 8 10 13 15 23 25 28 29 30 31 26 32 33 34 34 34 34 36 37 37 38 38 39 38 38 39 39 40 39 40 40 41 41 40 41 41 41 41 41
8 8 8 8 8 8 8 8 8 9 12 21 21 22 24 25 29 30 32 32 33 34 33 34 34 34 36 35 35 36 40 40 40 38 39 40 40 39 38 40 40 39 41 41 41 41 41
8 8 8 8 8 8 8 8 8 8 9 14 19 19 23 28 29 30 31 31 31 31 32 33 32 33 32 34 35 36 38 39 40 40 41 39 39 40 39 39 36 40 43 42 41 41 41
8 8 8 8 8 8 8 8 8 8 9 12 17 19 23 26 29 28 28 29 30 29 28 31 32 32 33 33 35 36 36 37 38 39 41 41 40 38 38 38 39 39 40 40 40 39 41
8 8 8 8 8 8 8 7 8 8 8 11 16 15 20 23 27 26 27 28 29 30 31 30 31 32 33 35 36 34 35 36 36 37 40 41 41 39 38 37 37 39 41 42 42 38 40
8 8 8 8 8 8 8 8 7 8 8 9 15 15 18 22 26 24 26 27 29 29 31 31 30 31 33 34 35 36 37 38 36 36 36 38 38 38 38 37 39 42 41 41 37 38 40
8 8 8 8 8 8 8 8 8 8 8 9 15 14 16 21 24 23 24 24 26 27 29 28 29 31 33 32 35 36 37 38 38 38 37 37 36 37 38 37 37 41 39 38 39 40 40
8 8 8 8 8 8 8 8 8 8 8 9 16 15 14 17 21 20 20 21 22 23 25 28 28 28 31 33 35 36 36 38 37 37 39 37 38 38 39 39 40 40 40 41 41 39 39